Find Starlink 30172

NORAD ID: 57410 Int'l Des: 2023-102 Owner: SPXS Country: US Constellation: starlink operational
LEOCIRCULAR

实时位置

正在加载3D地球...

关于 Starlink 30172

正在加载描述...

即将过境

Passes for default location (London). Set your location on the main map for personalized predictions.

高度历史

Loading altitude history...

两行轨道根数

1 57410U 23102G 26123.49423275 .00004006 00000-0 15897-3 0 9998
2 57410 43.0035 299.7411 0001242 266.1920 93.8789 15.26738651154617
Epoch: May 3, 2026 • Age: 20 hours

当前状态

高度 485.0 km
速度 7.62 km/s
星下点 3.09°N, 48.4°W
发射日期 Jul 19, 2023
运行时间 2.7 years
类型 internet

技术详情

分类 Payload
质量 730.00 kg
干质量 700.00 kg
总质量 730.00 kg
长度 0.30 m
直径 4.10 m
跨度 29.00 m
形状 Box + pan
制造商 SPXS
平台类型 Starlink V2M
阶段状态 In Orbit
所有者/国家 SPXS/US

Most Searched